METEOR 2-17 DEB

Satellite information

Favourite Embed

Satellite Type and Status

DEBRISIN ORBIT

Key statistics

Satellite METEOR 2-17 DEB at a glance.

Uptime

13673

Days in orbit

Revolutions

≈ 14.0

Per day

Orbit

LEO

Low Earth Orbit

Inclination

82.5

Latest

Satellite identification and parameters

Extended collection of information and parameters for METEOR 2-17 DEB.

Object identification

Identified? True

Debris? True

Object name: METEOR 2-17 DEB

International designator: 1988-005AG

Object number (NORAD): 35372

Object ID (CCSDS): 35372

Country: COMMONWEALTH OF INDEPENDENT STATES (CIS)

Current information (Y/N): Y

RCS size: SMALL

Orbital parameters

Period: 102.842 minutes

Inclination: 82.5262 deg

SMA: 7271.231 km

Apoapsis: 907.636 km

Periapsis: 878.556 km

RAAN: 203.5918 deg

Eccentricy: 0.0019997

Argument of periapsis: 157.6162 deg

Mean anomaly: 264.8015 deg

Mean motion: 14.0020253 rev/day

Mean motion (dot): 0.00001621 rev/day2

B* drag term: 0.0010867 1/REarth

Two-line elements (TLE)

Creation date: July 3, 2025, 5:26 p.m.

Reference frame: TEME

Reference center: EARTH

Epoch: July 3, 2025, 8:48 a.m. UTC

TLE line 0: 0 METEOR 2-17 DEB

TLE line 1: 1 35372U 88005AG 25184.36679693 .00001621 00000-0 10867-2 0 9994

TLE line 2: 2 35372 82.5262 203.5918 0019997 157.6162 264.8015 14.00202530615160

Live tracking on map

Real-time ground track for satellite METEOR 2-17 DEB.

In-orbit conjunctions

A list of the most updated potential collisions computed for object METEOR 2-17 DEB.

Target Orbit TCA Probability of collision Miss distance Type
MOS 1A (MOMO 1) SSO 2025-03-21 10:50:07 0.000696163 243.0 (m) PAYLOAD

Associated space launch

Second generation soviet meteorological satellite

METEOR 2-17 DEB was lifted into orbit during the mission ‘Tsiklon-3 | Meteor-2 17’, on board a Tsiklon-3 space rocket.

The launch took place on Jan. 30, 1988, 10:59 a.m. from 32/1.

For more information about the launch, click the button.

Launch to space Tsiklon-3 | Meteor-2 17
Tsiklon-3 | Meteor-2 17

Agency: N/A

Status: Launch Successful

Launch date: Jan. 30, 1988, 10:59 a.m. UTC

Rocket: Tsiklon-3

Launch pad: 32/1

Location: Plesetsk Cosmodrome, Russian Federation

...

Latest news about this satellite

There are no fresh news available about this satellite. Check back as we update our databases every day.


Newsletter sign-up

Weekly statistics, charts and insights to help you stay on top of the space industry.